KF5FGL Weather Reports


Display with metric or nautical units.
time (UTC)temp
F
wind
direction
speed
MPH
gust
MPH
rain 1hr
in
rain 24hr
in
rain mn
in
humidity
%
barometer
mb
20260510200018 86 120 2.0 11.0 0.00 0.00 0.00 64 1010.8
20260510194508 90 177 2.0 11.0 0.00 0.00 0.00 62 1011.0
20260510193026 87 130 2.0 9.0 0.00 0.00 0.00 63 1011.1
20260510191515 88 94 2.0 13.0 0.00 0.00 0.00 60 1011.2
20260510190002 87 123 3.0 7.0 0.00 0.00 0.00 63 1011.4
20260510184522 86 103 4.0 7.0 0.00 0.00 0.00 66 1011.4
20260510183010 84 139 6.0 11.0 0.00 0.00 0.00 67 1011.7
20260510181559 86 70 2.0 11.0 0.00 0.00 0.00 68 1012.0
20260510180018 84 130 3.0 10.0 0.00 0.00 0.00 70 1012.2
20260510174507 83 105 4.0 9.0 0.00 0.00 0.00 72 1012.6
20260510173025 83 161 5.0 12.0 0.00 0.00 0.00 72 1012.6
20260510171512 82 131 4.0 10.0 0.00 0.00 0.00 74 1012.5
20260510170001 82 34 2.0 7.0 0.00 0.00 0.00 75 1012.6
20260510164523 84 95 3.0 10.0 0.00 0.00 0.00 72 1012.4
20260510163007 82 102 4.0 15.0 0.00 0.00 0.00 75 1012.5
20260510161523 80 110 5.0 11.0 0.00 0.00 0.00 79 1012.4
20260510160010 79 106 3.0 13.0 0.00 0.00 0.00 80 1012.3
20260510154529 79 111 3.0 8.0 0.00 0.00 0.00 80 1012.2
20260510153016 78 95 3.0 8.0 0.00 0.00 0.00 82 1012.1
20260510151502 77 94 2.0 5.0 0.00 0.00 0.00 82 1012.0
20260510150023 77 121 1.0 5.0 0.00 0.00 0.00 81 1011.9
20260510144511 76 93 1.0 5.0 0.00 0.03 0.00 84 1011.9
20260510143027 76 133 1.0 6.0 0.00 0.03 0.00 84 1011.7
20260510141518 76 185 0.0 5.0 0.00 0.03 0.00 84 1011.5
20260510134519 72 231 2.0 6.0 0.00 0.03 0.00 85 1011.2
20260510133005 71 193 2.0 6.0 0.00 0.03 0.00 85 1010.9
20260510131523 71 270 1.0 8.0 0.00 0.03 0.00 85 1010.8
20260510130009 71 253 5.0 10.0 0.00 0.03 0.00 85 1010.5
20260510124528 70 200 4.0 6.0 0.00 0.03 0.00 86 1010.3
20260510123014 70 219 2.0 4.0 0.00 0.03 0.00 86 1010.2
20260510121501 69 200 1.0 4.0 0.00 0.03 0.00 86 1010.1
20260510120020 68 196 0.0 0.0 0.00 0.03 0.00 86 1010.0
20260510114509 68 209 1.0 3.0 0.00 0.03 0.00 86 1010.0
20260510113024 69 212 0.0 3.0 0.00 0.03 0.00 85 1010.0
20260510111516 70 184 0.0 3.0 0.00 0.03 0.00 85 1009.8
20260510110107 69 209 1.0 5.0 0.00 0.03 0.00 85 1009.9
20260510104522 70 178 0.0 4.0 0.00 0.03 0.00 85 1010.0
20260510103012 70 204 1.0 4.0 0.00 0.03 0.00 85 1010.0
20260510101536 70 210 1.0 3.0 0.00 0.03 0.00 85 1010.1
20260510100020 70 171 0.0 0.0 0.00 0.03 0.00 84 1010.3
20260510094507 70 171 0.0 0.0 0.00 0.03 0.00 83 1010.3
20260510093031 71 152 0.0 6.0 0.00 0.03 0.00 81 1010.0
20260510091508 72 189 1.0 4.0 0.00 0.03 0.00 79 1009.8
20260510090036 72 202 1.0 3.0 0.00 0.03 0.00 79 1009.9
20260510084527 72 169 0.0 3.0 0.00 0.03 0.00 80 1009.8
20260510083005 72 193 0.0 4.0 0.00 0.03 0.00 79 1009.9
20260510081526 72 181 0.0 2.0 0.00 0.03 0.00 79 1009.8
20260510080017 73 182 0.0 4.0 0.00 0.03 0.00 78 1009.8
20260510074530 74 183 0.0 3.0 0.00 0.03 0.00 75 1009.7
20260510073022 75 185 0.0 4.0 0.00 0.03 0.00 76 1009.6
20260510071508 74 208 1.0 4.0 0.00 0.03 0.00 77 1009.6
20260510070025 75 192 2.0 6.0 0.00 0.03 0.00 76 1009.7
20260510064514 75 210 3.0 8.0 0.00 0.03 0.00 76 1009.6
20260510063004 75 166 2.0 5.0 0.00 0.03 0.00 77 1009.7
20260510061535 77 165 0.0 2.0 0.00 0.03 0.00 75 1009.7
20260510060011 76 168 0.0 3.0 0.00 0.03 0.00 78 1009.7
20260510054530 75 181 0.0 2.0 0.00 0.03 0.00 79 1009.7
20260510053016 76 139 0.0 3.0 0.00 0.03 0.00 77 1009.8
20260510051502 78 153 0.0 3.0 0.00 0.03 0.00 75 1009.5
20260510050020 77 174 0.0 4.0 0.00 0.03 0.00 76 1009.3
20260510044510 78 186 1.0 6.0 0.00 0.03 0.03 75 1009.0
20260510043028 79 178 0.0 0.0 0.00 0.03 0.03 74 1009.2
20260510041517 78 112 0.0 0.0 0.00 0.03 0.03 75 1009.1
20260510040005 78 136 0.0 1.0 0.00 0.03 0.03 75 1009.0
20260510034526 78 139 0.0 0.0 0.00 0.03 0.03 75 1008.8
20260510033015 79 144 0.0 0.0 0.00 0.03 0.03 72 1008.8
20260510031508 80 148 0.0 1.0 0.00 0.03 0.03 71 1008.4
20260510030025 79 159 0.0 0.0 0.00 0.03 0.03 72 1008.4
20260510024527 81 156 0.0 1.0 0.00 0.03 0.03 69 1008.2
20260510023004 81 141 0.0 1.0 0.00 0.03 0.03 70 1008.1
20260510021525 82 146 0.0 1.0 0.00 0.03 0.03 67 1008.0
20260510020014 83 126 0.0 3.0 0.00 0.03 0.03 65 1007.8
20260510014503 83 139 0.0 3.0 0.00 0.03 0.03 64 1007.6
20260510013022 83 131 0.0 4.0 0.00 0.03 0.03 64 1007.3
20260510011510 84 125 1.0 3.0 0.00 0.03 0.03 61 1007.2
20260510010031 86 129 0.0 5.0 0.00 0.03 0.03 57 1007.0
20260510004519 85 91 3.0 9.0 0.00 0.03 0.03 57 1006.9
20260510003021 87 114 2.0 7.0 0.00 0.03 0.03 56 1006.7
20260510001530 89 144 0.0 3.0 0.00 0.03 0.03 50 1006.6
20260510000015 89 153 0.0 5.0 0.00 0.03 0.03 52 1006.4
20260509234515 88 108 1.0 7.0 0.00 0.03 0.03 53 1006.2
20260509233024 90 212 2.0 8.0 0.00 0.03 0.03 51 1005.9
20260509231516 90 217 1.0 7.0 0.00 0.03 0.03 51 1006.1
20260509230002 91 137 1.0 5.0 0.00 0.03 0.03 49 1006.7
20260509224525 90 160 1.0 3.0 0.00 0.03 0.03 52 1006.6
20260509223011 90 141 2.0 8.0 0.00 0.03 0.03 52 1006.4
20260509220020 92 245 0.0 5.0 0.00 0.03 0.03 49 1006.3
20260509214509 91 313 2.0 7.0 0.00 0.03 0.03 50 1006.5
20260509213027 92 150 3.0 9.0 0.00 0.03 0.03 48 1006.6
20260509211514 91 218 1.0 8.0 0.00 0.03 0.03 50 1006.6
20260509210007 92 192 2.0 9.0 0.00 0.03 0.03 49 1006.9
20260509204520 92 254 1.0 8.0 0.00 0.03 0.03 48 1007.1
20260509203009 91 204 2.0 9.0 0.00 0.03 0.03 50 1007.3
20260509201528 92 133 3.0 7.0 0.00 0.03 0.03 48 1007.6